Dumas, TX

8:35 AM CST on November 21, 2017 (GMT -0600)
Moore County

Weather History for KDUX - January, 2014

Change the Weather History Date:

Tuesday, January 28, 2014

  Actual Average (KDHT) Record (KDHT)
Temperature  
Mean Temperature 20 °F -  
Max Temperature 32 °F 47 °F 76 °F (1986)
Min Temperature 8 °F 21 °F 3 °F (1951)
Degree Days  
Heating Degree Days 45    
Moisture  
Dew Point -2 °F    
Average Humidity 39    
Maximum Humidity 50    
Minimum Humidity 26    
Precipitation  
Precipitation 0.00 in - - ()
Sea Level Pressure  
Sea Level Pressure 30.27 in    
Wind  
Wind Speed 6 mph (West)    
Max Wind Speed 10 mph    
Max Gust Speed 17 mph    
Visibility 10 miles    
Events      
Averages and records for this station are not official NWS values.
T = Trace of Precipitation, MM = Missing Value Source: NWS Daily Summary

Daily Weather History Graph

Daily Weather History Graph

Search for Another Location

Airport or City:

Trip Planner

Search our weather history database for the weather conditions in past years. The results will help you decide how hot, cold, wet, or windy it might be!

Date:

Astronomy

Jan. 28, 2014 Rise Set
Actual Time 7:51 AM CST 6:11 PM CST
Civil Twilight 7:24 AM CST 6:38 PM CST
Nautical Twilight 6:53 AM CST 7:09 PM CST
Astronomical Twilight 6:23 AM CST 7:39 PM CST
Moon 5:33 AM CST (1/28) 4:04 PM CST (1/28)
Length of Visible Light 11h 14m
Length of Day
10h 19m
Waning Crescent, 7% of the Moon is Illuminated
Jan 28
Waning Crescent
Jan 30
New
Feb 6
First Quarter
Feb 14
Full
Feb 22
Last Quarter

Hourly Weather History & Observations

Time (CST) Temp. Windchill Dew Point Humidity Pressure Visibility Wind Dir Wind Speed Gust Speed Precip Events Conditions
12:15 AM 9.5 °F -2.6 °F -8.5 °F 44% 30.25 in 10.0 mi East 8.1 mph - N/A   Clear
12:35 AM 9.3 °F -1.7 °F -8.1 °F 45% 30.26 in 10.0 mi ENE 6.9 mph - N/A   Clear
12:55 AM 8.8 °F 0.4 °F -7.6 °F 47% 30.27 in 10.0 mi ENE 4.6 mph - N/A   Scattered Clouds
1:15 AM 10.9 °F 0.2 °F -7.6 °F 43% 30.27 in 10.0 mi ENE 6.9 mph - N/A   Overcast
1:35 AM 11.1 °F 1.7 °F -7.4 °F 43% 30.27 in 10.0 mi East 5.8 mph - N/A   Overcast
1:55 AM 11.3 °F 1.9 °F -6.7 °F 44% 30.27 in 10.0 mi East 5.8 mph - N/A   Overcast
2:15 AM 11.7 °F 1.1 °F -7.1 °F 43% 30.27 in 10.0 mi East 6.9 mph - N/A   Overcast
2:35 AM 11.7 °F 3.7 °F -7.1 °F 43% 30.27 in 10.0 mi East 4.6 mph - N/A   Overcast
2:55 AM 11.7 °F - -6.7 °F 44% 30.27 in 10.0 mi Calm Calm - N/A   Overcast
3:15 AM 11.7 °F 3.7 °F -6.7 °F 44% 30.26 in 10.0 mi ENE 4.6 mph - N/A   Overcast
3:35 AM 11.7 °F 5.5 °F -6.7 °F 44% 30.26 in 10.0 mi NE 3.5 mph - N/A   Mostly Cloudy
3:55 AM 12.0 °F - -5.8 °F 45% 30.25 in 10.0 mi Calm Calm - N/A   Scattered Clouds
4:15 AM 12.2 °F - -5.3 °F 46% 30.27 in 10.0 mi Calm Calm - N/A   Scattered Clouds
4:35 AM 12.2 °F - -5.4 °F 45% 30.27 in 10.0 mi Calm Calm - N/A   Clear
4:55 AM 12.6 °F - -5.1 °F 45% 30.27 in 10.0 mi Calm Calm - N/A   Clear
5:15 AM 12.7 °F - -4.2 °F 47% 30.28 in 10.0 mi Calm Calm - N/A   Clear
5:35 AM 12.7 °F 2.4 °F -4.5 °F 46% 30.29 in 10.0 mi NNW 6.9 mph - N/A   Clear
5:55 AM 12.9 °F 3.8 °F -4.5 °F 46% 30.30 in 10.0 mi NW 5.8 mph - N/A   Scattered Clouds
6:15 AM 13.1 °F 4.0 °F -4.2 °F 46% 30.30 in 10.0 mi NNW 5.8 mph - N/A   Scattered Clouds
6:35 AM 13.5 °F 4.4 °F -4.2 °F 45% 30.30 in 10.0 mi NW 5.8 mph - N/A   Clear
6:55 AM 13.5 °F 3.3 °F -4.2 °F 45% 30.31 in 10.0 mi NW 6.9 mph - N/A   Clear
7:15 AM 13.5 °F 4.4 °F -4.2 °F 45% 30.31 in 10.0 mi NW 5.8 mph - N/A   Clear
7:35 AM 13.1 °F 5.4 °F -4.0 °F 47% 30.31 in 10.0 mi NW 4.6 mph - N/A   Clear
7:55 AM 12.2 °F 6.1 °F -3.6 °F 49% 30.32 in 10.0 mi WNW 3.5 mph - N/A   Clear
8:15 AM 12.0 °F - -3.5 °F 50% 30.32 in 10.0 mi Calm Calm - N/A   Clear
8:35 AM 12.9 °F 6.9 °F -2.6 °F 50% 30.33 in 10.0 mi West 3.5 mph - N/A   Clear
8:55 AM 14.2 °F - -2.2 °F 48% 30.34 in 10.0 mi Calm Calm - N/A   Clear
9:15 AM 15.1 °F - -3.5 °F 44% 30.34 in 10.0 mi Calm Calm - N/A   Clear
9:35 AM 16.3 °F 6.7 °F -3.8 °F 41% 30.35 in 10.0 mi West 6.9 mph - N/A   Clear
9:55 AM 17.6 °F 7.3 °F -5.4 °F 36% 30.35 in 10.0 mi West 8.1 mph - N/A   Clear
10:15 AM 19.2 °F 8.4 °F -5.8 °F 33% 30.35 in 10.0 mi West 9.2 mph - N/A   Clear
10:35 AM 20.3 °F 9.0 °F -6.0 °F 31% 30.36 in 10.0 mi West 10.4 mph - N/A   Clear
10:55 AM 21.6 °F 12.1 °F -4.2 °F 32% 30.35 in 10.0 mi West 8.1 mph - N/A   Clear
11:15 AM 22.6 °F 14.3 °F -0.9 °F 36% 30.35 in 10.0 mi WNW 6.9 mph - N/A   Clear
11:35 AM 23.4 °F 14.3 °F 0.9 °F 38% 30.35 in 10.0 mi WNW 8.1 mph - N/A   Clear
11:55 AM 24.8 °F 16.1 °F 1.6 °F 37% 30.35 in 10.0 mi NW 8.1 mph - N/A   Clear
12:15 PM 25.7 °F 19.0 °F 2.3 °F 37% 30.34 in 10.0 mi NW 5.8 mph - N/A   Clear
12:35 PM 26.6 °F 18.2 °F 3.2 °F 37% 30.33 in 10.0 mi NW 8.1 mph - N/A   Clear
12:55 PM 27.5 °F 22.2 °F 3.4 °F 36% 30.31 in 10.0 mi West 4.6 mph - N/A   Clear
1:15 PM 29.1 °F 21.3 °F 4.3 °F 35% 30.30 in 10.0 mi West 8.1 mph - N/A   Clear
1:35 PM 29.3 °F 23.2 °F 4.5 °F 35% 30.27 in 10.0 mi West 5.8 mph - N/A   Clear
1:55 PM 30.7 °F 24.1 °F 4.5 °F 33% 30.26 in 10.0 mi WSW 6.9 mph - N/A   Clear
2:15 PM 31.5 °F 28.1 °F 3.2 °F 30% 30.25 in 10.0 mi West 3.5 mph - N/A   Clear
2:35 PM 32.0 °F 25.6 °F -0.0 °F 26% 30.24 in 10.0 mi North 6.9 mph 17.3 mph N/A   Clear
2:55 PM 32.0 °F 25.6 °F 0.7 °F 26% 30.24 in 10.0 mi NE 6.9 mph - N/A   Clear
3:15 PM 32.2 °F 25.8 °F 1.0 °F 27% 30.24 in 10.0 mi NNW 6.9 mph - N/A   Clear
3:35 PM 32.0 °F 28.7 °F 1.4 °F 27% 30.24 in 10.0 mi NNE 3.5 mph - N/A   Clear
3:55 PM 32.0 °F 28.7 °F 1.6 °F 27% 30.23 in 10.0 mi NW 3.5 mph - N/A   Clear
4:15 PM 32.2 °F 26.7 °F 1.4 °F 27% 30.23 in 10.0 mi NNE 5.8 mph - N/A   Clear
4:35 PM 32.0 °F - 1.6 °F 27% 30.24 in 10.0 mi Calm Calm - N/A   Clear
4:55 PM 32.2 °F 28.9 °F 1.2 °F 27% 30.23 in 10.0 mi WNW 3.5 mph - N/A   Clear
5:15 PM 32.0 °F 27.5 °F 1.4 °F 27% 30.23 in 10.0 mi West 4.6 mph - N/A   Clear
5:35 PM 31.6 °F - 1.2 °F 27% 30.22 in 10.0 mi Calm Calm - N/A   Clear
5:55 PM 30.2 °F 25.4 °F 1.2 °F 29% 30.24 in 10.0 mi SW 4.6 mph - N/A   Clear
6:15 PM 28.0 °F 22.8 °F 0.1 °F 30% 30.24 in 10.0 mi SSW 4.6 mph - N/A   Clear
6:35 PM 27.5 °F 23.6 °F 0.3 °F 31% 30.24 in 10.0 mi SSW 3.5 mph - N/A   Clear
6:55 PM 25.3 °F 19.7 °F -0.9 °F 32% 30.24 in 10.0 mi SSW 4.6 mph - N/A   Clear
7:15 PM 19.0 °F 8.2 °F -1.8 °F 40% 30.24 in 10.0 mi SSW 9.2 mph - N/A   Clear
7:35 PM 17.1 °F 5.8 °F -3.3 °F 41% 30.24 in 10.0 mi SSW 9.2 mph - N/A   Clear
7:55 PM 18.7 °F 7.8 °F -2.4 °F 40% 30.24 in 10.0 mi SSW 9.2 mph - N/A   Clear
8:15 PM 18.9 °F 8.0 °F -2.4 °F 39% 30.24 in 10.0 mi SSW 9.2 mph - N/A   Clear
8:35 PM 19.0 °F 8.2 °F -2.4 °F 39% 30.24 in 10.0 mi SW 9.2 mph - N/A   Clear
8:55 PM 18.5 °F 7.5 °F -3.1 °F 39% 30.24 in 10.0 mi SW 9.2 mph - N/A   Clear
9:15 PM 16.5 °F 6.0 °F -3.3 °F 42% 30.24 in 10.0 mi SW 8.1 mph - N/A   Clear
9:35 PM 15.6 °F 4.0 °F -3.1 °F 44% 30.24 in 10.0 mi SW 9.2 mph - N/A   Clear
9:55 PM 16.2 °F 3.9 °F -2.7 °F 43% 30.24 in 10.0 mi SW 10.4 mph - N/A   Clear
10:15 PM 15.8 °F 3.4 °F -2.7 °F 44% 30.24 in 10.0 mi SSW 10.4 mph - N/A   Clear
10:35 PM 16.7 °F 5.3 °F -2.2 °F 43% 30.24 in 10.0 mi SSW 9.2 mph - N/A   Clear
10:55 PM 15.6 °F 4.9 °F -2.6 °F 45% 30.22 in 10.0 mi SW 8.1 mph - N/A   Clear
11:15 PM 14.9 °F 4.0 °F -2.6 °F 46% 30.22 in 10.0 mi SW 8.1 mph - N/A   Clear
11:35 PM 15.6 °F 3.2 °F -2.2 °F 45% 30.21 in 10.0 mi SW 10.4 mph - N/A   Clear
11:55 PM 16.7 °F 4.5 °F -1.5 °F 45% 30.20 in 10.0 mi SW 10.4 mph - N/A   Clear